Вернуться в каталог

STARLINK-31401

АктивенСвязьVLEO
NORAD 59417·PAYLOAD·🇺🇸 United States

Запущен Apr 5, 2024 с Cape Canaveral Space Force Station

Loading…

Ближайшие Пролёты (ближайшие 24 часа)

TLE

СвежийSource: CelesTrak SupGP

Эпоха: Sep 14, 2026, 22:10 UTC

1 59417C 24064V   26257.92409722  .00044615  00000+0  16163-2 0  2574
2 59417  43.0040  60.5649 0001468 273.4889 191.7618 15.27548261    14

Отслеживайте STARLINK-31401 в реальном времени с AllMySat

Download on the App Store